This is the latest recevied weather packets stored in our database for station/object KD9ZDW. If no packets are shown the sender has not sent any weather packets the latest 1 day(s).
| Time | Temp. | Humidity | Pressure | Rain* | Wind** | Luminosity | Snow |
|---|---|---|---|---|---|---|---|
| 1777983079 | 13.89° C | 86% | 1008.1 hPa | 0 mm | 1.34 m/s, 235° | 66 W/m² | - |
| 1777982775 | 13.89° C | 86% | 1008.1 hPa | 0 mm | 1.34 m/s, 257° | 76 W/m² | - |
| 1777982471 | 13.89° C | 86% | 1008.2 hPa | 0 mm | 1.34 m/s, 248° | 83 W/m² | - |
| 1777982166 | 13.89° C | 86% | 1008 hPa | 0 mm | 2.68 m/s, 247° | 61 W/m² | - |
| 1777981864 | 13.89° C | 86% | 1008.4 hPa | 0 mm | 3.13 m/s, 230° | 62 W/m² | - |
| 1777981560 | 13.89° C | 86% | 1008.1 hPa | 0 mm | 2.68 m/s, 306° | 71 W/m² | - |
| 1777981257 | 13.89° C | 86% | 1008.1 hPa | 1.27 mm | 1.79 m/s, 176° | 57 W/m² | - |
| 1777980953 | 13.33° C | 86% | 1008.2 hPa | 1.27 mm | 2.24 m/s, 232° | 43 W/m² | - |
| 1777980650 | 13.33° C | 87% | 1008.1 hPa | 0 mm | 1.34 m/s, 221° | 34 W/m² | - |
| 1777980346 | 13.33° C | 87% | 1008 hPa | 0 mm | 2.24 m/s, 240° | 11 W/m² | - |
| 1777980045 | 13.33° C | 88% | 1007.9 hPa | 0 mm | 1.79 m/s, 263° | 15 W/m² | - |
| 1777979744 | 13.33° C | 88% | 1007.8 hPa | 0 mm | 0.89 m/s, 231° | 15 W/m² | - |
| 1777979440 | 13.33° C | 88% | 1007.8 hPa | 0 mm | 0.89 m/s, 264° | 9 W/m² | - |
| 1777979137 | 13.33° C | 88% | 1007.7 hPa | 0 mm | 2.24 m/s, 218° | 9 W/m² | - |
| 1777978833 | 12.78° C | 88% | 1007.7 hPa | 0 mm | 1.34 m/s, 244° | 5 W/m² | - |
| 1777978530 | 12.78° C | 89% | 1007.5 hPa | 0 mm | 0.89 m/s, 235° | 4 W/m² | - |
| 1777978226 | 12.78° C | 89% | 1007.4 hPa | 0 mm | 2.68 m/s, 218° | 3 W/m² | - |
| 1777977923 | 12.78° C | 89% | 1007.4 hPa | 0 mm | 1.34 m/s, 259° | 3 W/m² | - |
| 1777977621 | 12.78° C | 88% | 1007.2 hPa | 0 mm | 0.45 m/s, 250° | 3 W/m² | - |
| 1777977317 | 12.78° C | 88% | 1007 hPa | 0 mm | 0.89 m/s, 287° | 2 W/m² | - |
| 1777977015 | 12.78° C | 88% | 1007 hPa | 0 mm | 1.34 m/s, 243° | 1 W/m² | - |
| 1777976711 | 12.78° C | 88% | 1006.6 hPa | 0 mm | 2.68 m/s, 205° | 0 W/m² | - |
| 1777976409 | 12.78° C | 88% | 1006.6 hPa | 0 mm | 0.45 m/s, 248° | 0 W/m² | - |
| 1777976107 | 12.78° C | 88% | 1006.5 hPa | 0 mm | 1.34 m/s, 298° | 0 W/m² | - |
| 1777975803 | 12.78° C | 88% | 1006.2 hPa | 0 mm | 1.34 m/s, 263° | 0 W/m² | - |
* Rain latest hour (hover to see other rain measurements)
** Current wind speed in m/s (hover to see current wind gust speed)